When you browse on this site, cookies collect data to enhance your experience and personalize the content and advertising you see.
Visit our Privacy Policy to learn more. By continuing to use the site, you agree to this use of cookies and data.
  • en Suisse
  • Liste des pays
  • À 7 jours
  • Température de l'eau
  • Carte météo
  • Widgets météo
  • user-avatar
    Se connecter

    Météo par heure à Vinh

    Ce jour, 23 Octobre, Mercredi

    Heure Température Précipitation Vent Pression Humidité
    00:00 +24°C° 0 mm 0 m/s 745 mmHg 93%
    01:00 +24°C° 0 mm 0 m/s 745 mmHg 93%
    02:00 +24°C° 0 mm 0 m/s 744 mmHg 93%
    03:00 +23°C° 0 mm 0 m/s 744 mmHg 93%
    04:00 +23°C° 0 mm 0 m/s 744 mmHg 93%
    05:00 +24°C° 0 mm 0 m/s 744 mmHg 91%
    06:00 +24°C° 0 mm 0 m/s 745 mmHg 90%
    07:00 +25°C° 0 mm 0 m/s 745 mmHg 89%
    08:00 +26°C° 0 mm 0 m/s 746 mmHg 82%
    09:00 +30°C° 0 mm 1 m/s 746 mmHg 76%
    10:00 +32°C° 0 mm 1 m/s 746 mmHg 69%
    11:00 +32°C° 0.3 mm 1 m/s 746 mmHg 70%
    12:00 +32°C° 0.3 mm 1 m/s 745 mmHg 70%
    13:00 +33°C° 0.3 mm 1 m/s 744 mmHg 71%
    14:00 +32°C° 0.5 mm 2 m/s 744 mmHg 75%
    15:00 +31°C° 0.5 mm 2 m/s 744 mmHg 78%
    16:00 +31°C° 0.5 mm 2 m/s 744 mmHg 82%
    17:00 +30°C° 0.3 mm 1 m/s 744 mmHg 86%
    18:00 +29°C° 0.3 mm 1 m/s 745 mmHg 91%
    19:00 +25°C° 0.3 mm 0 m/s 745 mmHg 95%
    20:00 +25°C° 0.3 mm 0 m/s 746 mmHg 95%
    21:00 +25°C° 0.3 mm 0 m/s 746 mmHg 96%
    22:00 +25°C° 0.3 mm 0 m/s 746 mmHg 97%
    23:00 +25°C° 0.1 mm 0 m/s 746 mmHg 97%

    Demain, 24 Octobre, Jeudi

    Heure Température Précipitation Vent Pression Humidité
    00:00 +25°C° 0.1 mm 0 m/s 746 mmHg 97%
    01:00 +24°C° 0.1 mm 0 m/s 746 mmHg 97%
    02:00 +24°C° 0.1 mm 0 m/s 746 mmHg 97%
    03:00 +24°C° 0.1 mm 0 m/s 746 mmHg 97%
    04:00 +24°C° 0.1 mm 0 m/s 746 mmHg 96%
    05:00 +24°C° 0.2 mm 0 m/s 746 mmHg 95%
    06:00 +24°C° 0.2 mm 0 m/s 747 mmHg 94%
    07:00 +27°C° 0.2 mm 1 m/s 747 mmHg 93%
    08:00 +28°C° 0.5 mm 1 m/s 748 mmHg 89%
    09:00 +29°C° 0.5 mm 1 m/s 748 mmHg 85%
    10:00 +30°C° 0.5 mm 2 m/s 748 mmHg 82%
    11:00 +30°C° 2 mm 2 m/s 748 mmHg 83%
    12:00 +30°C° 2 mm 2 m/s 747 mmHg 84%
    13:00 +30°C° 2 mm 2 m/s 746 mmHg 85%
    14:00 +29°C° 1.9 mm 2 m/s 746 mmHg 87%
    15:00 +29°C° 1.9 mm 1 m/s 746 mmHg 89%
    16:00 +28°C° 1.9 mm 1 m/s 746 mmHg 90%
    17:00 +28°C° 0.6 mm 1 m/s 746 mmHg 92%
    18:00 +27°C° 0.6 mm 1 m/s 747 mmHg 93%
    19:00 +26°C° 0.6 mm 1 m/s 747 mmHg 94%
    20:00 +26°C° 0.5 mm 1 m/s 748 mmHg 94%
    21:00 +26°C° 0.5 mm 1 m/s 748 mmHg 94%
    22:00 +26°C° 0.5 mm 1 m/s 749 mmHg 94%
    23:00 +26°C° 0.1 mm 1 m/s 748 mmHg 94%

    Après-demain, 25 Octobre, Vendredi

    Heure Température Précipitation Vent Pression Humidité
    00:00 +24°C° 0.1 mm 0 m/s 748 mmHg 95%
    01:00 +24°C° 0.1 mm 0 m/s 748 mmHg 95%
    02:00 +23°C° 0 mm 0 m/s 748 mmHg 95%
    03:00 +23°C° 0 mm 0 m/s 748 mmHg 95%
    04:00 +23°C° 0 mm 0 m/s 747 mmHg 95%
    05:00 +23°C° 0 mm 0 m/s 748 mmHg 94%
    06:00 +25°C° 0 mm 1 m/s 748 mmHg 93%
    07:00 +26°C° 0 mm 1 m/s 748 mmHg 92%
    08:00 +27°C° 0.1 mm 1 m/s 749 mmHg 86%
    09:00 +29°C° 0.1 mm 1 m/s 749 mmHg 80%
    10:00 +30°C° 0.1 mm 1 m/s 749 mmHg 75%
    11:00 +30°C° 0.4 mm 2 m/s 748 mmHg 74%
    12:00 +31°C° 0.4 mm 2 m/s 748 mmHg 74%
    13:00 +31°C° 0.4 mm 2 m/s 747 mmHg 74%
    14:00 +30°C° 1.5 mm 2 m/s 746 mmHg 78%
    15:00 +30°C° 1.5 mm 1 m/s 746 mmHg 81%
    16:00 +29°C° 1.5 mm 1 m/s 746 mmHg 84%
    17:00 +28°C° 0.8 mm 1 m/s 746 mmHg 88%
    18:00 +27°C° 0.8 mm 1 m/s 747 mmHg 91%
    19:00 +26°C° 0.8 mm 1 m/s 747 mmHg 94%
    20:00 +26°C° 0 mm 1 m/s 748 mmHg 94%
    21:00 +24°C° 0 mm 0 m/s 748 mmHg 94%
    22:00 +24°C° 0 mm 0 m/s 748 mmHg 95%
    23:00 +24°C° 0.1 mm 0 m/s 748 mmHg 95%

    26 Octobre, Samedi

    Heure Température Précipitation Vent Pression Humidité
    00:00 +24°C° 0.1 mm 0 m/s 748 mmHg 95%
    01:00 +23°C° 0.1 mm 0 m/s 748 mmHg 95%
    02:00 +23°C° 0.1 mm 0 m/s 748 mmHg 95%
    03:00 +23°C° 0.1 mm 0 m/s 748 mmHg 95%
    04:00 +25°C° 0.1 mm 1 m/s 748 mmHg 95%
    05:00 +25°C° 0.2 mm 1 m/s 748 mmHg 95%
    06:00 +26°C° 0.2 mm 1 m/s 749 mmHg 94%
    07:00 +26°C° 0.2 mm 1 m/s 749 mmHg 94%
    08:00 +27°C° 0.8 mm 1 m/s 749 mmHg 90%
    09:00 +28°C° 0.8 mm 1 m/s 749 mmHg 87%
    10:00 +29°C° 0.8 mm 1 m/s 750 mmHg 84%
    11:00 +29°C° 1.8 mm 1 m/s 749 mmHg 83%
    12:00 +30°C° 1.8 mm 2 m/s 748 mmHg 83%
    13:00 +30°C° 1.8 mm 2 m/s 747 mmHg 83%
    14:00 +29°C° 1 mm 2 m/s 747 mmHg 84%
    15:00 +29°C° 1 mm 2 m/s 747 mmHg 86%
    16:00 +28°C° 1 mm 2 m/s 747 mmHg 87%
    17:00 +28°C° 0.4 mm 2 m/s 747 mmHg 90%
    18:00 +27°C° 0.4 mm 1 m/s 748 mmHg 92%
    19:00 +26°C° 0.4 mm 1 m/s 748 mmHg 95%
    20:00 +26°C° 0.3 mm 1 m/s 748 mmHg 94%
    21:00 +24°C° 0.3 mm 0 m/s 749 mmHg 94%
    22:00 +24°C° 0.3 mm 0 m/s 749 mmHg 94%
    23:00 +24°C° 0.2 mm 0 m/s 749 mmHg 94%

    27 Octobre, Dimanche

    Heure Température Précipitation Vent Pression Humidité
    00:00 +24°C° 0.2 mm 0 m/s 748 mmHg 94%
    01:00 +24°C° 0.2 mm 0 m/s 748 mmHg 94%
    02:00 +24°C° 0.1 mm 0 m/s 748 mmHg 94%
    03:00 +23°C° 0.1 mm 0 m/s 748 mmHg 95%
    04:00 +23°C° 0.1 mm 0 m/s 747 mmHg 95%
    05:00 +24°C° 0.1 mm 0 m/s 748 mmHg 95%
    06:00 +24°C° 0.1 mm 0 m/s 748 mmHg 94%
    07:00 +24°C° 0.1 mm 0 m/s 749 mmHg 94%
    08:00 +26°C° 0.7 mm 1 m/s 749 mmHg 93%
    09:00 +27°C° 0.7 mm 1 m/s 749 mmHg 92%
    10:00 +27°C° 0.7 mm 1 m/s 749 mmHg 91%
    11:00 +27°C° 0.5 mm 1 m/s 749 mmHg 90%
    12:00 +27°C° 0.5 mm 1 m/s 748 mmHg 89%
    13:00 +28°C° 0.5 mm 1 m/s 747 mmHg 88%
    14:00 +28°C° 0.6 mm 1 m/s 747 mmHg 89%
    15:00 +28°C° 0.6 mm 2 m/s 746 mmHg 89%
    16:00 +28°C° 0.6 mm 2 m/s 746 mmHg 89%
    17:00 +27°C° 0.6 mm 2 m/s 747 mmHg 91%
    18:00 +27°C° 0.6 mm 1 m/s 747 mmHg 93%
    19:00 +26°C° 0.6 mm 1 m/s 747 mmHg 95%
    20:00 +26°C° 0.3 mm 1 m/s 748 mmHg 95%
    21:00 +26°C° 0.3 mm 1 m/s 748 mmHg 95%
    22:00 +25°C° 0.3 mm 1 m/s 748 mmHg 95%
    23:00 +25°C° 0.2 mm 1 m/s 748 mmHg 95%

    28 Octobre, Lundi

    Heure Température Précipitation Vent Pression Humidité
    00:00 +25°C° 0.2 mm 1 m/s 748 mmHg 95%
    01:00 +25°C° 0.2 mm 1 m/s 748 mmHg 96%
    02:00 +25°C° 0.2 mm 1 m/s 748 mmHg 96%
    03:00 +25°C° 0.2 mm 1 m/s 748 mmHg 96%
    04:00 +25°C° 0.2 mm 1 m/s 748 mmHg 96%
    05:00 +25°C° 0.1 mm 1 m/s 748 mmHg 95%
    06:00 +25°C° 0.1 mm 1 m/s 748 mmHg 95%
    07:00 +25°C° 0.1 mm 1 m/s 749 mmHg 95%
    08:00 +26°C° 0.1 mm 1 m/s 749 mmHg 92%
    09:00 +27°C° 0.1 mm 1 m/s 749 mmHg 90%
    10:00 +27°C° 0.1 mm 2 m/s 749 mmHg 88%
    11:00 +28°C° 0.5 mm 2 m/s 749 mmHg 86%
    12:00 +28°C° 0.5 mm 2 m/s 748 mmHg 84%
    13:00 +29°C° 0.5 mm 3 m/s 747 mmHg 83%
    14:00 +28°C° 0.6 mm 2 m/s 747 mmHg 85%
    15:00 +28°C° 0.6 mm 2 m/s 746 mmHg 87%
    16:00 +27°C° 0.6 mm 2 m/s 746 mmHg 89%
    17:00 +27°C° 0.4 mm 2 m/s 747 mmHg 91%
    18:00 +26°C° 0.4 mm 1 m/s 747 mmHg 93%
    19:00 +25°C° 0.4 mm 1 m/s 748 mmHg 96%
    20:00 +25°C° 0.7 mm 1 m/s 748 mmHg 96%
    21:00 +25°C° 0.7 mm 1 m/s 749 mmHg 96%
    22:00 +25°C° 0.7 mm 1 m/s 749 mmHg 96%
    23:00 +25°C° 0.6 mm 1 m/s 749 mmHg 96%

    29 Octobre, Mardi

    Heure Température Précipitation Vent Pression Humidité
    00:00 +25°C° 0.6 mm 1 m/s 749 mmHg 96%
    01:00 +25°C° 0.6 mm 1 m/s 748 mmHg 96%
    02:00 +25°C° 0.3 mm 1 m/s 748 mmHg 96%
    03:00 +25°C° 0.3 mm 1 m/s 748 mmHg 96%
    04:00 +24°C° 0.3 mm 1 m/s 748 mmHg 96%
    05:00 +25°C° 0.4 mm 1 m/s 748 mmHg 95%
    06:00 +25°C° 0.4 mm 1 m/s 749 mmHg 95%
    07:00 +25°C° 0.4 mm 1 m/s 749 mmHg 95%
    08:00 +26°C° 0.8 mm 2 m/s 749 mmHg 93%
    09:00 +26°C° 0.8 mm 2 m/s 749 mmHg 91%
    10:00 +27°C° 0.8 mm 2 m/s 750 mmHg 89%
    11:00 +27°C° 1 mm 2 m/s 749 mmHg 90%
    12:00 +27°C° 1 mm 2 m/s 748 mmHg 91%
    13:00 +27°C° 1 mm 2 m/s 747 mmHg 91%
    14:00 +26°C° 0.8 mm 2 m/s 747 mmHg 92%
    15:00 +26°C° 0.8 mm 2 m/s 747 mmHg 92%
    16:00 +26°C° 0.8 mm 2 m/s 747 mmHg 93%
    17:00 +26°C° 0.8 mm 2 m/s 747 mmHg 94%
    18:00 +25°C° 0.8 mm 2 m/s 748 mmHg 94%
    19:00 +25°C° 0.8 mm 2 m/s 748 mmHg 95%
    20:00 +25°C° 0.7 mm 2 m/s 749 mmHg 95%
    21:00 +25°C° 0.7 mm 1 m/s 749 mmHg 94%
    22:00 +25°C° 0.7 mm 1 m/s 749 mmHg 94%
    23:00 +25°C° 0.3 mm 1 m/s 749 mmHg 94%
    Voir plus